Chickamauga Observed Data For Previous 48 Hours

Caption
Day and Hour Reservoir Elevation (behind dam)* Tailwater Elevation (below dam)* Average Hourly Discharge*
1/16/2018 2 AM EST 676.48 633.63 13,709
1/16/2018 3 AM EST 676.42 633.47 13,687
1/16/2018 4 AM EST 676.49 633.42 13,681
1/16/2018 5 AM EST 676.55 633.52 13,737
1/16/2018 6 AM EST 676.51 633.47 13,684
1/16/2018 7 AM EST 676.46 633.37 13,726
1/16/2018 8 AM EST 676.38 633.69 14,379
1/16/2018 9 AM EST 676.35 635.66 32,411
1/16/2018 10 AM EST 676.34 635.78 30,867
1/16/2018 11 AM EST 676.54 635.95 33,551
1/16/2018 12 PM EST 676.62 635.96 33,609
1/16/2018 1 PM EST 676.68 635.94 33,664
1/16/2018 2 PM EST 676.68 635.99 33,563
1/16/2018 3 PM EST 676.63 636.05 33,704
1/16/2018 4 PM EST 676.53 636.08 33,620
1/16/2018 5 PM EST 676.48 636.08 33,737
1/16/2018 6 PM EST 676.36 636.10 33,683
1/16/2018 7 PM EST 676.25 636.17 33,803
1/16/2018 8 PM EST 676.22 636.25 33,778
1/16/2018 9 PM EST 676.21 636.21 33,861
1/16/2018 10 PM EST 676.30 636.20 33,806
1/16/2018 11 PM EST 676.40 636.17 33,848
1/17/2018 12 AM EST 676.48 636.13 33,746
1/17/2018 1 AM EST 676.49 636.08 33,762
1/17/2018 2 AM EST 676.55 636.16 33,737
1/17/2018 3 AM EST 676.59 636.19 33,754
1/17/2018 4 AM EST 676.56 636.16 33,789
1/17/2018 5 AM EST 676.50 636.12 33,737
1/17/2018 6 AM EST 676.41 636.10 33,812
1/17/2018 7 AM EST 676.32 636.08 33,740
1/17/2018 8 AM EST 676.29 636.07 33,849
1/17/2018 9 AM EST 676.26 636.06 33,809
1/17/2018 10 AM EST 676.28 636.04 33,856
1/17/2018 11 AM EST 676.43 636.06 33,843
1/17/2018 12 PM EST 676.54 636.09 33,893
1/17/2018 1 PM EST 676.61 636.09 33,848
1/17/2018 2 PM EST 676.66 636.10 33,881
1/17/2018 3 PM EST 676.64 636.08 33,462
1/17/2018 4 PM EST 676.53 636.08 33,443
1/17/2018 5 PM EST 676.48 636.08 33,539
1/17/2018 6 PM EST 676.32 636.04 33,883
1/17/2018 7 PM EST 676.22 636.00 33,733
1/17/2018 8 PM EST 676.15 636.03 33,841
1/17/2018 9 PM EST 676.17 636.04 33,780
1/17/2018 10 PM EST 676.24 636.05 33,880
1/17/2018 11 PM EST 676.36 636.06 33,759
1/18/2018 12 AM EST 676.45 636.02 33,767
1/18/2018 1 AM EST 676.69 633.54 14,181
1/18/2018 2 AM EST 676.74 633.28 13,750
1/18/2018 3 AM EST 676.62 633.13 13,742
1/18/2018 4 AM EST 676.66 633.10 13,681
1/18/2018 5 AM EST 676.64 633.72 14,286
1/18/2018 6 AM EST 676.59 635.71 32,075

Elevations are in feet above sea level. Discharges are in cubic feet per second and are reported at the end of the hour.